Location: Burera
(21.3780°N, 81.9534°E)
Time: 12:32:17
(UTC+00:00)

ATLAS 2AS CENTAUR R/B - Pass Details

Date: 13 August 2020
Orbit: 938 x 1273 km, 63.7° (Epoch: 18 September)

Event Time Altitude Azimuth Distance (km) Brightness Sun altitude
Exits shadow 22:10:04 10° 172° (S) 3,133 4.9 -26.7°
Maximum altitude 22:16:47 35° 109° (ESE) 1,906 4.3 -25.3°
Drops below altitude 10° 22:23:46 10° 48° (NE) 3,261 6.2 -23.9°
Sets 22:26:52 0° 39° (NE) 4,233 6.9 -23.3°
